When you browse on this site, cookies collect data to enhance your experience and personalize the content and advertising you see.
Visit our Privacy Policy to learn more. By continuing to use the site, you agree to this use of cookies and data.
  • In Hungary
  • List of Countries
  • For 7 days
  • Water Temperature
  • Satellite Maps
  • Weather Map
  • News
  • Weather Widgets
  • user-avatar
    Login

    Hourly Weather Gao

    Today, 21 January, Monday

    Time Temperature Precipitation Wind Pressure Humidity
    00:00 +27°C° 0 mm 0 mps 731 mmHg 58%
    01:00 +27°C° 0 mm 0 mps 731 mmHg 60%
    02:00 +25°C° 0.5 mm 0 mps 730 mmHg 67%
    03:00 +26°C° 0.5 mm 1 mps 730 mmHg 75%
    04:00 +25°C° 0.5 mm 1 mps 730 mmHg 82%
    05:00 +25°C° 0 mm 1 mps 731 mmHg 83%
    06:00 +26°C° 0 mm 1 mps 731 mmHg 84%
    07:00 +26°C° 0 mm 1 mps 732 mmHg 84%
    08:00 +29°C° 0 mm 1 mps 732 mmHg 72%
    09:00 +31°C° 0 mm 1 mps 732 mmHg 60%
    10:00 +35°C° 0 mm 2 mps 733 mmHg 49%
    11:00 +35°C° 0 mm 1 mps 732 mmHg 45%
    12:00 +37°C° 0 mm 1 mps 731 mmHg 41%
    13:00 +36°C° 0 mm 0 mps 730 mmHg 37%
    14:00 +35°C° 0 mm 0 mps 730 mmHg 38%
    15:00 +35°C° 0 mm 0 mps 729 mmHg 39%
    16:00 +34°C° 0 mm 0 mps 728 mmHg 40%
    17:00 +32°C° 0 mm 0 mps 729 mmHg 45%
    18:00 +30°C° 0 mm 0 mps 729 mmHg 50%
    19:00 +29°C° 0 mm 0 mps 729 mmHg 55%
    20:00 +27°C° 0.6 mm 0 mps 729 mmHg 63%
    21:00 +26°C° 0.6 mm 0 mps 730 mmHg 71%
    22:00 +24°C° 0.6 mm 0 mps 730 mmHg 79%
    23:00 +26°C° 0.1 mm 1 mps 730 mmHg 80%

    Tomorrow, 22 January, Tuesday

    Time Temperature Precipitation Wind Pressure Humidity
    00:00 +26°C° 0.1 mm 1 mps 730 mmHg 82%
    01:00 +26°C° 0.1 mm 1 mps 730 mmHg 84%
    02:00 +25°C° 0 mm 1 mps 729 mmHg 84%
    03:00 +25°C° 0 mm 1 mps 729 mmHg 85%
    04:00 +25°C° 0 mm 1 mps 729 mmHg 86%
    05:00 +25°C° 0 mm 1 mps 729 mmHg 84%
    06:00 +26°C° 0 mm 1 mps 730 mmHg 83%
    07:00 +26°C° 0 mm 1 mps 730 mmHg 81%
    08:00 +29°C° 0 mm 1 mps 730 mmHg 69%
    09:00 +32°C° 0 mm 1 mps 731 mmHg 57%
    10:00 +35°C° 0 mm 1 mps 731 mmHg 44%
    11:00 +37°C° 0 mm 1 mps 730 mmHg 39%
    12:00 +40°C° 0 mm 1 mps 730 mmHg 33%
    13:00 +42°C° 0 mm 1 mps 729 mmHg 28%
    14:00 +41°C° 0 mm 1 mps 728 mmHg 30%
    15:00 +39°C° 0 mm 1 mps 727 mmHg 33%
    16:00 +35°C° 0 mm 0 mps 727 mmHg 35%
    17:00 +35°C° 0 mm 1 mps 727 mmHg 40%
    18:00 +33°C° 0 mm 1 mps 727 mmHg 45%
    19:00 +31°C° 0 mm 1 mps 728 mmHg 50%
    20:00 +30°C° 0.6 mm 1 mps 728 mmHg 62%
    21:00 +28°C° 0.6 mm 1 mps 729 mmHg 73%
    22:00 +26°C° 0.6 mm 2 mps 730 mmHg 85%
    23:00 +26°C° 0.1 mm 2 mps 729 mmHg 86%

    Day after tomorrow, 23 January, Wednesday

    Time Temperature Precipitation Wind Pressure Humidity
    00:00 +26°C° 0.1 mm 1 mps 729 mmHg 87%
    01:00 +26°C° 0.1 mm 1 mps 729 mmHg 88%
    02:00 +26°C° 0.2 mm 1 mps 729 mmHg 88%
    03:00 +25°C° 0.2 mm 1 mps 729 mmHg 88%
    04:00 +25°C° 0.2 mm 1 mps 729 mmHg 89%
    05:00 +26°C° 0 mm 1 mps 729 mmHg 87%
    06:00 +26°C° 0 mm 1 mps 730 mmHg 85%
    07:00 +26°C° 0 mm 1 mps 731 mmHg 84%
    08:00 +27°C° 0 mm 1 mps 731 mmHg 78%
    09:00 +28°C° 0 mm 2 mps 732 mmHg 72%
    10:00 +30°C° 0 mm 2 mps 732 mmHg 66%
    11:00 +30°C° 0 mm 2 mps 731 mmHg 64%
    12:00 +31°C° 0 mm 2 mps 730 mmHg 61%
    13:00 +31°C° 0 mm 1 mps 730 mmHg 58%
    14:00 +32°C° 0 mm 2 mps 729 mmHg 56%
    15:00 +34°C° 0 mm 2 mps 728 mmHg 54%
    16:00 +34°C° 0 mm 2 mps 728 mmHg 51%
    17:00 +32°C° 0 mm 1 mps 728 mmHg 57%
    18:00 +30°C° 0 mm 1 mps 728 mmHg 64%
    19:00 +26°C° 0 mm 0 mps 729 mmHg 70%
    20:00 +28°C° 0 mm 1 mps 729 mmHg 72%
    21:00 +27°C° 0 mm 1 mps 730 mmHg 73%
    22:00 +27°C° 0 mm 1 mps 730 mmHg 75%
    23:00 +27°C° 0 mm 1 mps 730 mmHg 76%

    24 January, Thursday

    Time Temperature Precipitation Wind Pressure Humidity
    00:00 +24°C° 0 mm 0 mps 729 mmHg 78%
    01:00 +24°C° 0 mm 0 mps 729 mmHg 79%
    02:00 +25°C° 0.4 mm 1 mps 729 mmHg 83%
    03:00 +25°C° 0.4 mm 1 mps 729 mmHg 88%
    04:00 +24°C° 0.4 mm 1 mps 728 mmHg 92%
    05:00 +24°C° 0 mm 1 mps 729 mmHg 91%
    06:00 +25°C° 0 mm 1 mps 729 mmHg 90%
    07:00 +23°C° 0 mm 0 mps 730 mmHg 90%
    08:00 +28°C° 0 mm 1 mps 730 mmHg 77%
    09:00 +31°C° 0 mm 1 mps 730 mmHg 64%
    10:00 +34°C° 0 mm 1 mps 731 mmHg 51%
    11:00 +36°C° 0 mm 1 mps 730 mmHg 45%
    12:00 +39°C° 0 mm 1 mps 729 mmHg 38%
    13:00 +41°C° 0 mm 1 mps 728 mmHg 32%
    14:00 +40°C° 0 mm 1 mps 727 mmHg 33%
    15:00 +37°C° 0 mm 0 mps 727 mmHg 33%
    16:00 +36°C° 0 mm 0 mps 726 mmHg 34%
    17:00 +34°C° 0 mm 0 mps 726 mmHg 40%
    18:00 +31°C° 0 mm 0 mps 727 mmHg 46%
    19:00 +29°C° 0 mm 0 mps 727 mmHg 52%
    20:00 +28°C° 0 mm 0 mps 727 mmHg 53%
    21:00 +28°C° 0 mm 0 mps 728 mmHg 55%
    22:00 +27°C° 0 mm 0 mps 729 mmHg 57%
    23:00 +28°C° 0.6 mm 1 mps 728 mmHg 65%

    25 January, Friday

    Time Temperature Precipitation Wind Pressure Humidity
    00:00 +27°C° 0.6 mm 1 mps 728 mmHg 73%
    01:00 +26°C° 0.6 mm 1 mps 728 mmHg 82%
    02:00 +25°C° 0.8 mm 1 mps 728 mmHg 85%
    03:00 +25°C° 0.8 mm 1 mps 728 mmHg 87%
    04:00 +23°C° 0.8 mm 0 mps 728 mmHg 90%
    05:00 +25°C° 0 mm 1 mps 729 mmHg 90%
    06:00 +25°C° 0 mm 1 mps 729 mmHg 89%
    07:00 +26°C° 0 mm 1 mps 730 mmHg 89%
    08:00 +28°C° 0 mm 1 mps 730 mmHg 76%
    09:00 +31°C° 0 mm 1 mps 730 mmHg 64%
    10:00 +35°C° 0 mm 2 mps 731 mmHg 51%
    11:00 +36°C° 0 mm 1 mps 730 mmHg 44%
    12:00 +40°C° 0 mm 1 mps 729 mmHg 38%
    13:00 +42°C° 0 mm 1 mps 728 mmHg 31%
    14:00 +37°C° 0 mm 0 mps 728 mmHg 35%
    15:00 +36°C° 0 mm 0 mps 727 mmHg 39%
    16:00 +34°C° 0 mm 0 mps 726 mmHg 42%
    17:00 +32°C° 0 mm 0 mps 727 mmHg 48%
    18:00 +32°C° 0 mm 1 mps 727 mmHg 54%
    19:00 +31°C° 0 mm 1 mps 728 mmHg 60%
    20:00 +29°C° 1.3 mm 1 mps 728 mmHg 70%
    21:00 +28°C° 1.3 mm 1 mps 729 mmHg 79%
    22:00 +26°C° 1.3 mm 1 mps 729 mmHg 89%
    23:00 +26°C° 0.2 mm 1 mps 729 mmHg 90%

    26 January, Saturday

    Time Temperature Precipitation Wind Pressure Humidity
    00:00 +26°C° 0.2 mm 1 mps 729 mmHg 92%
    01:00 +23°C° 0.2 mm 0 mps 729 mmHg 93%
    02:00 +23°C° 0 mm 0 mps 729 mmHg 93%
    03:00 +23°C° 0 mm 0 mps 729 mmHg 92%
    04:00 +23°C° 0 mm 0 mps 729 mmHg 92%
    05:00 +23°C° 0 mm 0 mps 729 mmHg 91%
    06:00 +25°C° 0 mm 1 mps 730 mmHg 90%
    07:00 +26°C° 0 mm 1 mps 730 mmHg 90%
    08:00 +28°C° 0 mm 1 mps 730 mmHg 78%
    09:00 +31°C° 0 mm 1 mps 731 mmHg 66%
    10:00 +34°C° 0 mm 2 mps 731 mmHg 54%
    11:00 +36°C° 0 mm 2 mps 730 mmHg 49%
    12:00 +37°C° 0 mm 2 mps 729 mmHg 43%
    13:00 +39°C° 0 mm 2 mps 728 mmHg 38%
    14:00 +37°C° 0 mm 1 mps 728 mmHg 40%
    15:00 +36°C° 0 mm 1 mps 727 mmHg 43%
    16:00 +33°C° 0 mm 0 mps 727 mmHg 46%
    17:00 +34°C° 0 mm 1 mps 727 mmHg 50%
    18:00 +32°C° 0 mm 1 mps 727 mmHg 54%
    19:00 +31°C° 0 mm 2 mps 728 mmHg 59%
    20:00 +29°C° 1 mm 2 mps 728 mmHg 68%
    21:00 +28°C° 1 mm 1 mps 729 mmHg 77%
    22:00 +26°C° 1 mm 1 mps 729 mmHg 86%
    23:00 +26°C° 8.4 mm 1 mps 729 mmHg 89%
    Show more